Starlink 1873

operational
NORAD ID: 47158 Int'l Des: 2020-088 Owner: SPXS Country: US Constellation: starlink
LEOCIRCULARSTARLINK_TYPE

Über Starlink 1873

Beschreibung wird geladen...

Live-Position

3D-Globus wird geladen...

Nächste Überflüge

Höhenverlauf

Altitude vs Time

uPlot chart will show altitude changes over time

Zweizeiliger Elementsatz

1 47158U 20088AN 26035.83334490 .00123229 00000-0 21182-2 0 9998
2 47158 53.0522 67.4184 0011280 23.9326 189.5918 15.50176365 5938
Epoch: 4. Feb. 2026 • Age: 7 hours

Aktueller Status

Höhe 412.4 km
Geschwindigkeit 7.67 km/s
Subsatellitenpunkt 38.43°N, 78.42°W
Startdatum 25. Nov. 2020
Alter 5.1 years
Typ internet

Technische Details

Klassifizierung Payload
Masse 260.00 kg
Trockenmasse 248.00 kg
Gesamtmasse 260.00 kg
Länge 0.20 m
Durchmesser 2.80 m
Spannweite 9.00 m
Form Box + pan
Hersteller SPXS
Bus-Typ Starlink
Phasenstatus In Orbit
Besitzer/Staat SPXS/US

Große Konstellationen

Loading constellations...